261P/Larson (2019)

Japanese version
Home page
Updated on November 4, 2020

---------------------------------------------------------------------

* Profile

* Pictures

* Orbital Elements

Epoch 2019 June 6.0 TT = JDT 2458640.5
T 2019 June 18.65055 TT                                 MPC
q   2.0133980            (2000.0)            P               Q
n   0.15131034     Peri.   67.10772     +0.99472067     +0.02806781
a   3.4878434      Node   291.16709     -0.06812360     +0.89996381
e   0.4227384      Incl.    6.07602     +0.07674605     +0.43506015
P   6.51
From 446 observations 2005 July 3-2012 Dec. 24, mean residual 0".6.

* Finding Charts

* Magnitudes Graph

        m1 = 2.5 + 5 log d + 40.0 log r(t - 40)

---------------------------------------------------------------------

The orbital elements are published on M.P.E.C. 2012-Y30.
The charts are made with StellaNavigator Ver.10 (AstroArts).
The magnitudes graphs are made with Comet for Windows.

---------------------------------------------------------------------

Copyright(C) Seiichi Yoshida (comet@aerith.net). All rights reserved.